Temp
66 67 64 60 48 44 40 48 54 56 59 66 66 60 61 63 61 54 66 70 71 71 73 74 74 75 75 75 75 75 75 76 76 76 76 76 76 76 76 76 76 76 76 76 76 75 75 74 73
63 71 62 54 43 37 40 49 54 60 65 66 63 60 57 60 62 63 65 70 72 72 73 73 73 75 75 74 74 74 75 76 76 76 76 76 76 76 76 76 75 75 75 75 75 74 74 73 73
66 68 55 50 43 41 40 51 56 63 64 64 62 61 59 61 62 65 67 71 72 71 73 73 72 74 74 74 74 74 75 75 76 76 76 76 76 75 75 75 75 75 75 75 74 74 73 73 72
59 57 53 44 43 48 49 52 58 57 63 66 64 58 61 65 64 68 70 72 71 71 72 70 73 74 74 74 74 74 75 75 75 75 75 76 75 75 75 75 75 75 75 74 74 73 73 72 72
57 55 44 45 47 46 50 57 63 59 58 62 63 58 58 65 68 69 70 72 71 70 70 71 72 73 73 73 74 74 74 74 74 74 74 74 74 74 74 74 75 75 75 74 73 72 72 71 71
51 52 43 43 48 47 52 56 55 56 60 62 61 57 60 64 65 67 70 70 72 69 70 71 68 70 71 72 73 73 74 74 74 73 73 74 73 73 73 74 74 75 74 73 72 71 70 70 70
50 46 44 48 47 48 52 56 54 56 60 59 63 57 59 63 64 68 69 69 69 69 69 69 69 68 67 69 70 71 72 72 72 72 72 72 71 72 72 72 72 73 72 71 71 70 70 70 70
49 48 45 46 44 45 53 56 58 58 57 68 64 55 56 65 66 66 66 66 68 69 70 69 68 68 68 68 66 68 68 69 70 69 68 67 67 68 68 67 70 71 71 70 70 70 70 69 68
53 43 40 46 47 48 52 52 56 59 57 61 63 59 64 67 66 64 64 65 67 68 70 70 69 68 66 67 65 65 65 66 65 65 63 63 63 64 64 65 68 69 69 69 69 69 68 66 65
42 38 43 52 50 46 53 55 53 55 58 56 58 61 65 66 65 63 63 62 64 65 68 70 70 69 66 69 66 68 67 67 65 63 62 62 62 62 64 62 64 66 66 67 68 68 66 62 58
41 38 47 51 52 53 49 51 56 54 52 55 59 59 64 64 65 63 64 64 65 66 67 69 69 69 68 68 66 66 67 66 64 61 61 61 61 60 60 59 59 59 59 58 60 59 58 58 57
36 43 44 45 50 49 48 50 49 54 56 63 61 62 60 63 64 64 63 64 65 65 66 68 70 69 69 68 67 65 64 65 63 61 61 59 59 58 58 57 57 57 56 56 56 56 58 58 59
37 41 45 46 47 49 52 48 48 49 57 63 64 62 60 61 64 65 66 66 65 64 66 68 68 69 68 67 67 65 65 64 62 61 61 60 59 58 58 57 56 56 56 56 56 57 58 58 59
40 40 41 43 44 46 46 49 49 50 56 57 61 60 60 61 61 63 64 63 64 65 65 67 67 69 67 67 65 64 63 61 62 61 61 61 60 59 58 57 57 56 56 57 57 57 57 58 59
40 33 38 40 42 42 49 43 44 51 56 53 57 59 58 61 61 62 65 63 65 65 66 66 67 68 67 66 64 63 64 64 62 62 61 62 61 59 59 58 57 57 57 58 57 57 57 58 60
35 35 28 37 40 42 44 33 48 54 54 53 54 57 57 60 62 63 64 65 65 65 65 66 68 66 66 65 64 64 64 64 63 63 61 62 62 61 59 58 58 58 58 58 58 61 62 63 63
27 19 24 30 41 40 39 35 47 53 53 51 52 56 56 57 60 61 63 65 64 65 65 64 66 66 66 65 65 65 65 64 64 64 62 62 62 62 61 60 60 60 59 59 62 63 63 62 61
17 21 26 26 35 39 37 37 44 51 51 50 50 55 54 56 56 57 61 65 65 64 64 65 65 66 66 66 65 65 66 67 64 64 64 63 63 63 62 61 63 61 63 63 63 63 63 62 62
29 25 22 29 37 36 35 37 42 47 50 50 51 52 53 52 52 54 56 59 63 63 63 64 65 65 65 65 64 64 63 64 62 62 65 64 64 63 63 62 63 65 64 63 64 63 62 61 61
28 20 19 30 36 36 35 36 42 48 49 51 52 52 51 49 50 50 52 53 53 60 63 64 65 64 65 65 66 66 65 64 65 66 64 65 64 65 65 63 64 65 64 63 63 62 60 61 61
27 24 23 25 34 38 33 32 37 44 48 51 53 54 50 49 47 47 47 47 52 52 51 59 65 64 66 65 63 62 63 63 63 63 63 65 66 65 66 65 65 64 64 63 63 62 61 59 59
24 32 31 29 27 23 36 26 36 42 43 46 46 47 44 45 45 46 45 45 46 48 51 51 51 63 64 65 64 63 63 62 64 63 64 65 66 66 66 65 64 63 63 62 63 62 61 60 58
28 36 31 31 29 30 30 28 34 42 39 41 41 41 41 41 41 41 42 43 43 45 47 48 49 50 61 62 63 63 61 62 62 62 63 63 63 64 64 64 63 63 62 61 61 61 60 60 59
39 35 33 32 27 23 29 30 31 36 40 39 39 39 39 39 40 41 42 43 42 44 46 47 47 46 51 57 61 62 62 61 60 60 61 61 62 63 63 63 63 62 62 61 61 60 60 59 59
34 29 21 20 20 19 33 29 27 33 42 40 36 37 38 39 39 39 40 40 41 41 42 45 45 44 46 48 53 55 57 59 58 57 58 60 58 58 59 59 58 57 57 57 58 58 57 56 56
32 30 24 19 20 23 29 23 26 33 37 37 37 36 37 36 37 37 38 39 40 40 41 42 42 42 43 44 45 47 48 50 50 50 51 50 51 51 53 53 53 53 53 52 52 50 49 49 49
32 28 34 27 24 21 25 27 32 33 32 33 34 34 33 34 35 36 37 38 39 39 40 41 41 41 41 42 42 42 43 44 45 45 46 46 47 49 48 49 49 48 48 48 48 47 46 46 46
33 35 27 29 20 17 24 25 26 30 30 32 31 32 33 34 34 35 36 37 38 38 39 40 41 40 40 41 41 41 40 41 42 43 43 43 44 46 46 46 46 45 45 45 45 43 43 43 42
31 30 31 30 28 23 20 23 32 32 33 33 32 34 34 34 34 35 36 37 38 38 38 39 39 39 39 40 40 40 40 40 40 40 40 41 42 43 43 43 43 43 42 42 41 41 42 40 40
34 33 33 27 23 25 26 22 32 32 33 35 34 35 36 36 35 35 36 37 37 37 38 38 38 38 38 38 38 38 39 39 38 38 39 40 40 41 41 41 40 40 41 40 39 39 40 39 38
MSLP
1015.61 1015.19 1015.07 1015.36 1016.75 1017.05 1016.40 1015.15 1013.86 1013.04 1012.41 1011.44 1011.44 1011.84 1012.09 1011.60 1011.76 1012.83 1011.85 1012.09 1012.56 1013.27 1013.67 1014.25 1014.65 1015.07 1015.81 1016.15 1016.35 1016.63 1016.77 1017.11 1017.60 1017.87 1018.15 1018.34 1018.56 1018.74 1018.96 1019.08 1019.35 1019.49 1019.64 1019.93 1020.14 1020.41 1020.57 1020.75 1020.89
1015.70 1015.17 1015.23 1016.20 1016.87 1016.97 1015.90 1014.75 1013.78 1012.60 1011.84 1011.34 1011.39 1011.62 1011.96 1011.49 1011.45 1011.84 1012.33 1012.33 1012.49 1013.16 1013.89 1014.33 1014.67 1015.04 1015.89 1016.28 1016.47 1016.73 1016.88 1017.18 1017.75 1018.03 1018.24 1018.48 1018.77 1018.96 1019.17 1019.35 1019.56 1019.84 1020.02 1020.30 1020.55 1020.77 1020.96 1021.13 1021.25
1015.77 1015.55 1016.29 1016.61 1016.26 1015.70 1015.43 1014.15 1013.21 1012.15 1012.17 1011.76 1011.83 1011.77 1011.95 1011.38 1011.46 1011.53 1011.61 1012.37 1012.75 1013.27 1013.98 1014.61 1014.76 1015.12 1015.93 1016.39 1016.63 1016.84 1017.01 1017.20 1017.75 1018.03 1018.34 1018.52 1018.90 1019.16 1019.43 1019.65 1019.93 1020.08 1020.36 1020.62 1020.87 1021.10 1021.27 1021.43 1021.60
1016.37 1016.40 1016.75 1016.43 1015.30 1014.99 1014.27 1013.63 1013.09 1012.80 1012.11 1011.61 1011.67 1011.90 1011.89 1011.55 1011.48 1011.46 1011.62 1012.44 1012.95 1013.46 1014.07 1014.76 1014.85 1015.28 1015.90 1016.49 1016.76 1016.94 1017.19 1017.31 1017.77 1018.01 1018.31 1018.66 1019.11 1019.48 1019.72 1019.97 1020.22 1020.34 1020.57 1020.89 1021.15 1021.35 1021.53 1021.74 1021.80
1016.92 1016.93 1016.78 1015.77 1014.88 1014.64 1014.06 1013.66 1013.15 1012.72 1012.62 1011.75 1011.80 1012.09 1012.20 1011.59 1011.46 1011.66 1011.88 1012.28 1012.84 1013.60 1014.21 1014.67 1015.05 1015.42 1015.86 1016.48 1016.82 1017.00 1017.35 1017.60 1017.99 1018.28 1018.60 1018.98 1019.43 1019.77 1019.97 1020.27 1020.46 1020.57 1020.82 1021.16 1021.43 1021.66 1021.82 1021.96 1022.03
1017.48 1017.04 1016.09 1014.80 1014.64 1014.57 1013.98 1013.57 1013.36 1012.85 1012.39 1011.64 1011.89 1012.06 1012.12 1012.26 1011.90 1011.96 1012.25 1012.36 1012.92 1013.62 1014.35 1014.69 1015.25 1015.62 1016.04 1016.50 1016.81 1017.11 1017.44 1017.85 1018.26 1018.62 1018.85 1019.20 1019.66 1020.07 1020.32 1020.59 1020.75 1020.81 1021.02 1021.48 1021.71 1021.95 1022.05 1022.14 1022.26
1017.43 1016.92 1015.17 1014.70 1014.31 1014.23 1013.75 1013.57 1013.36 1012.88 1012.32 1011.64 1011.78 1012.34 1012.33 1012.48 1012.57 1012.38 1012.59 1012.91 1013.52 1013.77 1014.40 1014.85 1015.43 1015.84 1016.33 1016.63 1016.91 1017.21 1017.59 1018.08 1018.56 1018.91 1019.16 1019.48 1019.86 1020.28 1020.67 1020.94 1021.08 1021.14 1021.52 1021.83 1021.99 1022.17 1022.30 1022.37 1022.47
1017.62 1016.98 1015.62 1014.30 1014.13 1013.68 1013.70 1013.43 1013.09 1012.99 1012.14 1011.48 1011.47 1012.08 1012.15 1011.43 1012.33 1012.54 1013.02 1013.35 1013.53 1014.43 1014.35 1014.93 1015.52 1016.07 1016.52 1016.87 1017.09 1017.39 1017.83 1018.21 1018.85 1019.20 1019.53 1019.78 1020.17 1020.54 1020.92 1021.19 1021.45 1021.63 1021.86 1022.11 1022.22 1022.36 1022.49 1022.59 1022.72
1018.09 1017.27 1014.61 1013.87 1014.34 1014.28 1013.86 1013.56 1013.33 1012.96 1012.74 1012.08 1011.73 1011.77 1011.36 1011.35 1012.01 1012.67 1013.32 1013.74 1013.77 1014.71 1014.68 1014.96 1015.36 1016.20 1016.64 1017.01 1017.32 1017.64 1018.07 1018.48 1019.13 1019.56 1019.90 1020.23 1020.56 1020.87 1021.08 1021.37 1021.70 1021.94 1022.14 1022.30 1022.45 1022.52 1022.65 1022.75 1022.89
1018.55 1017.11 1014.93 1014.97 1014.98 1014.61 1014.10 1013.74 1013.81 1013.53 1012.76 1012.01 1011.88 1011.73 1011.63 1011.70 1012.01 1012.31 1012.76 1013.16 1013.68 1014.25 1014.64 1014.94 1015.31 1016.13 1016.66 1017.01 1017.42 1017.75 1018.33 1018.79 1019.22 1019.83 1020.22 1020.52 1020.73 1021.09 1021.21 1021.58 1021.92 1022.18 1022.40 1022.53 1022.60 1022.71 1022.80 1022.94 1023.04
1018.53 1016.57 1016.71 1015.73 1015.57 1015.44 1015.23 1014.41 1013.89 1013.43 1012.61 1012.03 1012.10 1012.25 1012.17 1011.84 1012.11 1012.29 1012.53 1012.50 1012.78 1013.37 1014.41 1014.75 1015.27 1016.01 1016.53 1016.99 1017.45 1017.82 1018.36 1018.87 1019.38 1019.89 1020.37 1020.70 1020.92 1021.22 1021.52 1021.96 1022.33 1022.51 1022.63 1022.81 1022.87 1023.01 1023.12 1023.11 1023.16
1019.03 1017.84 1017.83 1017.26 1016.65 1016.45 1015.89 1015.41 1014.71 1013.25 1012.36 1011.74 1011.89 1012.09 1012.64 1012.28 1011.68 1011.96 1012.32 1012.59 1013.16 1013.38 1014.18 1014.55 1015.14 1015.84 1016.37 1016.92 1017.35 1017.82 1018.48 1018.83 1019.44 1019.92 1020.33 1020.84 1021.21 1021.42 1021.82 1022.12 1022.51 1022.75 1022.93 1023.06 1023.08 1023.23 1023.26 1023.22 1023.17
1018.98 1018.45 1018.14 1017.78 1017.32 1016.73 1016.03 1015.24 1015.35 1013.41 1012.75 1011.89 1011.51 1011.48 1012.01 1012.41 1011.84 1011.81 1012.15 1012.72 1013.05 1013.45 1013.80 1014.45 1015.11 1015.69 1016.24 1016.84 1017.33 1017.79 1018.43 1018.87 1019.37 1019.84 1020.26 1020.78 1021.21 1021.45 1021.78 1022.19 1022.51 1022.76 1022.93 1023.05 1023.17 1023.23 1023.29 1023.32 1023.25
1019.07 1018.90 1018.55 1018.25 1017.70 1017.01 1016.36 1015.10 1015.37 1012.89 1012.49 1012.13 1011.84 1011.35 1011.66 1011.79 1011.42 1011.50 1012.11 1012.30 1012.76 1013.16 1013.43 1014.18 1015.16 1015.51 1016.22 1016.73 1017.28 1017.69 1018.30 1018.98 1019.32 1019.76 1020.06 1020.51 1021.05 1021.40 1021.68 1022.02 1022.41 1022.67 1022.81 1022.95 1023.04 1023.14 1023.24 1023.22 1023.18
1019.61 1019.28 1018.77 1018.10 1017.80 1017.17 1016.32 1015.14 1012.84 1013.53 1013.10 1012.45 1011.92 1011.48 1011.64 1011.55 1011.41 1011.36 1011.46 1011.93 1012.24 1012.77 1013.13 1013.66 1014.98 1015.44 1016.12 1016.68 1017.23 1017.60 1018.06 1018.81 1019.24 1019.53 1019.93 1020.26 1020.65 1021.19 1021.53 1021.92 1022.22 1022.40 1022.62 1022.84 1023.01 1023.08 1023.13 1023.10 1023.07
1019.83 1019.47 1018.82 1017.69 1017.39 1016.92 1016.39 1013.19 1012.56 1012.97 1012.55 1012.08 1011.89 1011.46 1011.55 1011.46 1011.17 1011.12 1011.49 1011.82 1012.26 1012.94 1013.31 1013.40 1014.75 1015.35 1015.92 1016.54 1017.07 1017.44 1017.87 1018.46 1019.10 1019.30 1019.70 1020.05 1020.39 1020.74 1021.23 1021.74 1022.04 1022.15 1022.46 1022.69 1022.87 1022.76 1022.88 1022.99 1023.01
1020.01 1019.70 1018.91 1018.05 1017.12 1016.63 1015.64 1013.43 1012.62 1012.75 1012.32 1011.74 1011.64 1011.55 1011.58 1011.30 1011.38 1011.25 1011.27 1011.65 1012.08 1012.74 1013.45 1013.32 1014.14 1014.94 1015.69 1016.33 1016.83 1017.26 1017.61 1018.09 1018.76 1019.07 1019.41 1019.75 1020.06 1020.42 1020.81 1021.18 1021.48 1021.78 1022.08 1022.38 1022.35 1022.41 1022.55 1022.86 1022.95
1018.91 1019.13 1018.72 1018.15 1016.70 1015.94 1015.06 1013.63 1012.84 1012.07 1011.73 1011.39 1011.40 1011.29 1011.60 1011.80 1012.26 1011.87 1011.74 1011.65 1011.93 1012.48 1013.17 1013.55 1013.98 1014.82 1015.58 1016.16 1016.64 1017.15 1017.45 1017.73 1018.33 1018.73 1019.03 1019.45 1019.71 1019.98 1020.35 1020.62 1020.86 1021.21 1021.52 1021.84 1022.03 1022.18 1022.35 1022.58 1022.69
1018.64 1019.13 1018.47 1017.24 1016.09 1015.87 1014.82 1013.98 1012.76 1012.23 1011.89 1011.30 1011.16 1011.45 1011.82 1012.62 1013.34 1012.25 1012.63 1012.01 1012.16 1012.19 1012.93 1013.42 1014.09 1014.53 1015.22 1015.65 1016.12 1016.84 1016.98 1017.47 1018.06 1018.41 1018.64 1018.96 1019.27 1019.54 1019.86 1020.11 1020.38 1020.65 1021.07 1021.39 1021.71 1022.04 1022.31 1022.45 1022.67
1018.06 1018.37 1017.97 1017.00 1016.07 1015.57 1014.26 1013.11 1012.33 1011.75 1011.39 1011.03 1011.17 1011.83 1012.21 1013.31 1013.88 1013.54 1013.23 1012.97 1013.17 1012.79 1012.98 1013.29 1013.75 1014.18 1014.57 1015.05 1015.62 1016.27 1016.67 1016.96 1017.21 1017.74 1018.30 1018.59 1018.75 1019.01 1019.28 1019.59 1020.00 1020.26 1020.67 1021.00 1021.41 1021.76 1022.21 1022.29 1022.45
1016.65 1017.15 1016.66 1016.47 1015.53 1014.68 1014.05 1012.89 1011.57 1010.91 1011.36 1011.03 1011.28 1011.82 1012.89 1013.48 1014.24 1014.42 1013.47 1013.67 1013.78 1013.89 1013.57 1012.86 1013.23 1013.75 1013.89 1014.45 1015.41 1016.10 1016.74 1017.04 1017.29 1017.66 1018.08 1018.24 1018.33 1018.55 1018.79 1019.05 1019.41 1019.86 1020.15 1020.66 1021.01 1021.32 1021.68 1021.96 1022.33
1014.97 1015.01 1015.93 1015.96 1015.81 1014.14 1013.25 1011.65 1010.53 1010.67 1011.15 1011.70 1011.98 1012.84 1013.74 1014.37 1015.08 1015.22 1014.81 1014.55 1014.86 1015.09 1014.55 1014.08 1014.09 1013.76 1013.76 1014.01 1014.63 1015.30 1015.84 1016.26 1016.58 1017.04 1017.65 1017.89 1018.02 1018.17 1018.44 1018.75 1019.32 1019.67 1019.97 1020.36 1020.47 1020.85 1021.40 1021.83 1022.19
1013.29 1014.12 1014.80 1015.03 1014.60 1013.49 1012.26 1012.37 1010.20 1010.40 1011.24 1012.08 1012.80 1013.90 1014.60 1015.61 1016.42 1016.10 1015.85 1016.01 1015.79 1015.68 1015.16 1014.59 1014.47 1015.25 1013.69 1013.92 1014.57 1015.17 1015.59 1016.21 1016.21 1016.70 1017.35 1017.65 1017.79 1017.99 1018.29 1018.64 1019.17 1019.24 1019.49 1020.15 1020.43 1020.64 1021.15 1021.57 1021.94
1012.85 1013.13 1013.85 1014.19 1013.95 1012.29 1011.32 1011.41 1011.04 1010.74 1010.81 1012.57 1013.77 1014.73 1015.55 1016.06 1017.13 1017.01 1017.06 1016.80 1016.33 1016.16 1015.58 1015.07 1014.93 1016.07 1015.45 1014.05 1014.26 1014.84 1015.34 1016.05 1016.25 1016.87 1017.33 1017.53 1017.79 1018.01 1018.11 1018.34 1018.90 1019.24 1019.60 1020.05 1020.38 1020.55 1021.07 1021.35 1021.62
1011.95 1011.48 1012.53 1013.01 1012.28 1011.44 1009.77 1011.67 1012.39 1012.17 1011.70 1012.97 1014.53 1015.66 1016.46 1017.16 1017.54 1017.84 1017.72 1017.59 1017.47 1017.08 1016.75 1016.67 1016.15 1017.57 1016.09 1016.09 1015.51 1014.89 1015.70 1015.99 1016.65 1017.20 1017.51 1017.61 1017.91 1018.35 1018.11 1018.19 1019.00 1019.29 1019.81 1020.23 1020.32 1020.64 1021.14 1021.47 1021.61
1010.72 1011.17 1010.38 1010.22 1010.31 1010.43 1010.70 1011.73 1013.45 1013.89 1013.52 1014.54 1015.64 1016.89 1017.49 1017.86 1017.77 1018.61 1018.49 1018.79 1018.10 1017.43 1017.65 1018.22 1017.15 1016.88 1018.24 1017.45 1016.67 1016.53 1016.42 1016.53 1017.37 1017.87 1017.54 1018.37 1018.32 1018.92 1018.92 1019.11 1019.79 1020.17 1020.48 1020.66 1021.06 1021.42 1021.78 1022.11 1022.28
1010.23 1010.39 1009.91 1009.83 1009.69 1010.76 1011.74 1013.16 1014.15 1014.59 1014.98 1015.73 1016.81 1017.31 1017.92 1018.27 1018.81 1019.41 1019.48 1019.29 1019.18 1018.34 1019.09 1018.76 1018.13 1018.37 1018.44 1018.14 1018.34 1017.84 1017.61 1017.93 1018.41 1018.16 1018.80 1018.98 1019.17 1019.60 1019.57 1019.89 1020.36 1020.72 1021.06 1021.07 1021.52 1022.05 1022.44 1022.69 1023.09
1009.78 1009.79 1009.82 1009.19 1009.61 1010.57 1012.00 1012.95 1014.64 1015.07 1015.80 1016.56 1017.41 1018.22 1018.98 1019.33 1019.18 1020.01 1020.20 1019.88 1020.13 1019.78 1019.85 1019.66 1019.42 1019.69 1019.89 1020.27 1019.36 1020.17 1019.07 1019.58 1019.59 1019.55 1019.75 1019.61 1020.14 1020.12 1020.15 1020.25 1020.80 1021.16 1021.23 1021.78 1022.35 1022.41 1022.90 1023.20 1023.68
1009.93 1009.60 1009.54 1009.48 1009.45 1010.25 1012.28 1014.79 1015.91 1015.63 1016.09 1017.30 1018.43 1019.13 1019.62 1019.90 1020.01 1021.11 1021.03 1020.86 1020.79 1020.61 1020.45 1020.70 1020.39 1020.38 1020.06 1020.81 1020.65 1020.24 1020.42 1020.07 1020.10 1020.41 1020.99 1020.92 1020.64 1020.89 1020.94 1021.22 1021.60 1022.14 1021.99 1022.70 1022.95 1023.30 1023.40 1023.77 1024.40
1010.29 1009.91 1009.54 1009.64 1010.80 1010.92 1012.24 1016.04 1016.62 1016.91 1017.19 1017.67 1018.79 1019.36 1020.36 1020.88 1020.80 1021.11 1021.42 1021.78 1021.49 1021.73 1021.65 1021.55 1021.39 1021.49 1021.51 1021.38 1021.45 1021.17 1020.88 1020.68 1021.00 1021.97 1022.34 1022.18 1022.20 1021.47 1021.75 1022.27 1022.76 1022.97 1023.18 1023.52 1023.64 1024.29 1024.28 1024.55 1025.04
Wind_Speed
8 7 1 4 3 3 4 7 3 4 2 6 5 2 6 5 7 7 2 8 15 15 14 15 19 19 16 16 16 16 15 15 15 14 15 16 19 19 18 19 15 15 17 16 15 15 16 16 14
5 4 4 2 4 4 6 5 8 12 7 6 1 2 2 6 1 6 7 9 18 15 13 13 18 19 17 16 16 15 15 15 15 15 15 17 18 19 18 18 17 16 16 16 16 15 15 14 13
7 3 2 3 5 12 6 5 11 14 5 2 4 3 3 4 2 12 5 14 16 15 12 12 17 20 18 16 15 15 15 16 15 15 16 18 19 19 18 16 16 16 16 16 15 15 14 13 12
4 4 3 3 14 7 9 3 4 3 5 4 3 4 3 2 5 7 16 17 16 14 12 13 18 20 19 16 15 15 15 14 14 15 18 18 19 17 16 15 14 15 15 15 14 14 13 12 12
3 1 3 8 20 4 4 8 16 12 4 6 2 4 5 5 3 14 18 17 19 14 10 13 17 19 19 16 15 14 14 14 14 15 18 19 18 17 16 14 13 13 15 13 13 12 11 10 10
2 1 7 21 22 5 6 6 3 4 4 9 3 3 5 4 8 11 17 17 18 15 12 11 13 15 16 16 15 14 14 13 15 16 18 19 18 17 16 14 12 13 14 14 12 10 9 8 8
4 3 17 19 17 12 9 3 4 6 12 10 3 5 3 4 4 9 12 11 12 13 12 9 10 11 11 12 11 12 13 15 15 16 17 17 17 16 15 14 11 13 13 12 11 9 7 7 7
2 4 19 20 16 20 5 5 2 5 7 5 7 5 6 9 11 9 10 10 13 11 13 11 10 9 8 8 11 12 13 14 13 13 12 12 11 12 11 12 12 13 12 11 9 8 6 7 7
0 8 19 27 22 15 3 6 2 2 5 4 2 3 5 14 15 11 11 9 13 11 13 11 11 8 7 7 9 13 13 14 13 12 11 8 5 7 7 10 12 10 10 9 8 6 5 6 5
5 10 19 7 8 4 9 13 4 5 5 4 4 0 5 17 17 17 17 15 18 16 15 13 13 13 9 8 9 9 9 7 7 6 6 5 6 5 6 8 10 9 7 7 6 5 4 4 1
5 20 13 14 13 12 12 13 7 8 12 5 2 7 7 13 15 15 16 19 21 18 12 14 14 14 10 9 6 5 5 5 5 7 5 5 5 4 4 3 3 3 5 2 3 2 1 0 1
10 13 6 6 12 11 10 13 13 11 12 6 6 1 4 15 15 17 16 16 16 17 13 14 15 14 12 8 7 7 5 6 6 6 7 4 3 4 4 3 4 3 2 3 2 1 1 1 1
12 10 7 7 14 13 16 16 12 21 13 8 7 2 6 12 19 17 14 13 15 16 15 15 13 15 11 12 8 7 7 6 7 7 6 4 4 4 4 4 4 3 3 3 2 2 1 2 2
5 8 11 8 11 11 17 19 13 6 7 8 8 5 7 11 11 10 13 14 17 16 17 15 14 13 12 11 10 7 7 5 7 6 7 7 5 4 4 4 4 4 4 3 3 3 3 3 2
7 12 13 13 9 9 7 19 32 9 19 9 7 6 4 11 7 9 16 17 18 16 17 18 15 14 14 13 9 7 7 7 6 7 7 8 7 6 5 4 4 4 4 4 3 3 3 2 2
4 5 14 5 8 7 9 25 20 9 13 15 9 7 3 9 12 12 8 12 14 14 17 18 13 14 14 11 9 7 7 7 6 7 6 9 9 8 6 4 4 4 4 4 4 4 3 2 2
6 9 6 6 10 7 15 13 18 20 16 15 9 8 5 6 9 4 8 14 16 15 14 17 16 16 16 11 9 8 9 7 6 6 6 9 8 8 6 6 6 6 5 5 4 3 3 3 3
9 10 11 12 5 15 16 16 8 15 12 12 8 9 4 8 1 5 1 13 17 14 13 14 13 16 15 10 8 6 6 7 6 7 7 9 7 9 7 6 7 6 5 5 3 3 4 3 2
6 10 9 7 15 9 15 19 21 19 14 12 8 5 1 3 3 7 5 4 13 14 12 15 16 17 13 11 11 10 9 7 6 5 9 10 8 9 8 5 6 7 6 6 6 3 4 4 2
13 7 11 12 11 11 13 15 12 17 16 15 12 7 7 4 2 4 5 8 9 7 14 17 17 15 13 10 9 8 8 6 8 7 7 9 9 10 8 6 6 7 6 5 5 4 2 2 4
21 19 17 13 3 16 4 11 11 13 11 9 11 8 7 6 1 3 7 9 5 6 8 6 16 15 14 14 8 5 4 3 4 5 5 8 10 10 9 8 6 7 6 6 6 6 7 3 2
20 25 18 15 7 11 15 5 10 17 14 13 8 9 9 7 5 3 4 9 6 5 7 7 14 9 11 13 12 14 10 8 6 6 6 7 9 9 8 7 5 5 3 5 7 4 3 3 3
15 16 22 18 17 15 15 5 4 14 17 8 9 9 8 10 3 4 8 7 7 7 5 7 13 17 7 7 7 8 6 2 2 3 8 6 5 5 5 6 4 4 3 3 4 4 4 3 3
13 10 17 11 9 9 14 10 7 13 11 11 8 10 9 12 4 5 6 6 9 8 8 8 13 12 15 4 9 11 12 7 5 3 5 4 4 5 6 6 6 5 3 4 3 3 4 4 3
16 8 7 8 5 6 8 14 3 9 6 14 13 9 8 9 7 6 7 8 8 10 11 7 12 7 14 11 4 7 5 7 8 5 3 4 3 2 3 7 5 4 5 3 3 3 3 1 2
13 9 3 6 7 4 4 4 3 6 15 15 14 12 9 9 10 8 8 6 8 11 12 8 11 13 11 10 12 9 10 5 5 6 6 3 4 4 5 7 6 6 5 6 5 4 4 4 4
7 8 0 2 3 5 4 5 2 7 12 14 12 11 10 9 10 8 8 9 7 12 10 9 11 12 10 13 9 12 11 11 8 7 6 5 5 5 6 7 7 7 7 6 6 4 5 6 4
2 5 3 4 4 5 5 8 4 4 10 9 10 10 8 8 11 9 7 9 8 9 7 8 9 10 10 8 9 5 8 10 9 6 8 9 7 5 7 8 7 7 8 7 5 6 5 7 4
3 2 2 2 4 4 5 6 7 3 9 10 8 10 7 7 11 6 6 7 7 7 9 6 8 9 10 8 6 10 7 9 10 10 8 6 8 7 9 9 8 7 8 7 8 5 7 9 6
3 5 3 1 3 5 4 4 8 8 7 9 9 10 7 7 7 7 7 6 7 6 6 7 8 8 7 8 7 8 9 10 11 8 8 7 4 8 9 8 8 7 8 6 8 6 6 8 8
Wind_Direction
326 312 53 40 59 70 236 242 254 286 238 200 123 174 236 266 164 208 125 141 133 149 153 156 152 147 149 145 140 138 138 141 146 144 143 145 139 132 125 113 113 113 111 111 109 112 108 101 89
320 305 41 79 136 217 240 219 239 234 235 341 354 56 222 235 111 119 131 153 144 146 153 156 151 146 148 147 143 142 142 146 152 154 152 146 144 136 126 124 117 116 113 113 112 116 109 98 87
322 13 81 186 205 225 229 210 234 255 272 264 328 121 242 231 90 153 145 150 144 144 151 158 149 145 148 148 147 148 147 146 160 162 160 149 144 133 125 116 118 119 117 114 112 115 114 100 84
8 8 356 228 233 228 221 251 230 348 319 245 172 245 278 308 183 169 140 147 144 145 150 157 149 147 147 151 153 152 152 149 145 154 152 145 133 123 121 119 124 121 119 117 114 112 110 100 87
18 95 220 235 239 253 225 246 273 283 284 264 45 246 272 327 164 138 146 149 153 146 147 154 148 149 148 153 156 150 151 143 138 135 133 128 125 120 118 121 129 127 122 118 114 109 104 95 89
232 229 217 234 232 220 251 248 282 278 279 288 305 145 222 341 130 149 155 151 156 146 148 147 144 146 150 153 154 150 148 140 138 134 126 125 123 121 119 121 126 129 127 125 117 112 107 100 91
238 207 236 246 236 233 231 210 235 271 269 282 201 199 283 188 160 146 146 136 140 144 142 138 145 146 146 147 146 147 139 134 135 134 130 130 132 131 132 130 128 129 117 122 124 121 113 93 80
253 261 247 236 242 250 231 222 190 237 273 300 142 215 223 190 155 136 132 135 137 149 147 144 138 145 144 149 140 133 130 125 133 127 122 127 128 133 136 127 128 131 129 129 126 122 105 85 72
260 244 238 233 237 239 236 244 252 291 274 306 240 219 283 144 147 138 138 146 145 161 162 155 145 144 137 137 139 128 127 120 118 120 120 107 111 120 122 117 125 129 131 134 131 119 103 80 49
207 242 246 246 235 275 252 251 208 239 247 264 312 284 147 151 160 158 163 164 167 167 167 165 161 165 149 146 144 137 134 134 129 126 127 120 119 128 116 119 122 126 131 132 129 122 105 70 32
271 244 261 277 321 320 322 306 217 222 245 204 252 322 180 170 178 173 176 175 178 165 165 166 165 167 156 151 144 138 137 135 131 132 133 131 123 113 107 110 112 127 123 94 89 80 43 98 101
251 263 283 315 301 307 304 321 305 243 238 191 192 138 242 200 187 184 182 173 173 166 161 163 170 166 161 155 155 144 142 144 143 146 139 133 131 129 131 131 149 150 145 152 142 137 230 259 241
251 266 272 271 284 285 291 281 290 280 272 236 280 343 249 233 207 201 186 177 167 168 162 167 166 169 163 165 156 151 152 155 152 149 146 139 146 150 144 155 161 166 159 172 181 206 211 228 235
280 285 275 269 270 283 269 273 304 274 245 206 211 256 296 234 221 189 181 173 177 172 168 160 172 167 164 168 162 157 151 154 154 156 161 156 156 158 162 159 175 180 184 188 190 188 195 213 200
270 277 281 264 254 253 242 266 243 278 264 265 233 235 353 252 205 216 188 180 174 175 166 163 174 167 170 165 164 160 161 161 166 171 166 169 160 167 164 167 175 189 184 192 187 187 197 203 213
271 266 253 230 209 221 183 253 252 263 227 247 239 251 281 279 225 203 198 176 175 174 176 158 172 170 167 167 169 165 165 166 180 177 170 174 172 172 165 169 193 186 179 181 186 193 187 205 176
210 245 257 283 220 232 192 260 262 262 243 230 221 233 291 344 240 219 196 171 169 171 178 165 172 174 174 171 170 171 171 170 180 176 176 179 175 176 172 182 191 178 178 194 189 188 174 189 199
197 198 230 234 231 210 231 245 251 279 216 212 216 233 342 342 323 17 227 178 166 167 176 176 171 176 178 170 168 173 173 180 172 181 183 181 183 179 177 180 186 174 183 191 191 179 192 198 205
198 226 256 237 232 242 236 238 238 253 260 209 203 209 16 69 350 39 3 56 169 165 182 175 179 180 178 180 176 181 181 175 175 178 185 183 182 183 191 188 180 181 181 187 190 169 185 229 182
219 205 238 265 269 226 249 260 247 236 248 213 204 207 142 118 303 24 37 58 52 168 178 184 186 181 179 178 179 184 185 182 178 185 187 191 183 189 194 180 184 184 183 184 178 171 170 231 175
212 213 221 223 304 225 189 267 239 257 239 209 204 187 114 128 116 16 48 42 49 50 58 223 183 185 180 167 150 128 137 144 161 182 191 199 192 192 194 188 182 186 184 191 191 186 188 187 181
216 210 222 228 237 243 175 256 212 211 186 193 151 141 122 70 59 23 64 56 43 14 329 33 24 221 183 165 164 163 181 177 193 175 191 197 200 195 194 187 171 177 188 200 197 173 161 160 196
236 193 207 209 227 235 191 234 170 173 181 166 129 111 104 90 44 40 39 50 41 34 14 52 45 347 172 168 159 161 163 150 133 149 177 178 171 173 165 145 148 216 210 222 197 167 181 178 181
192 198 195 217 253 225 211 213 164 176 176 142 130 121 111 99 67 48 44 43 44 25 35 53 60 16 330 64 177 185 191 171 140 147 187 176 181 190 184 173 170 165 176 196 197 161 198 201 218
199 171 171 195 173 240 197 194 15 334 196 142 130 102 93 96 75 41 36 42 39 46 35 34 62 51 4 1 51 113 114 143 134 123 118 143 111 53 111 113 99 93 96 72 77 89 86 62 133
190 221 234 194 171 136 336 80 34 35 76 88 97 110 100 96 82 42 41 39 54 46 36 31 60 51 23 10 13 39 53 48 80 105 97 56 92 74 62 80 76 76 82 83 69 77 77 65 60
145 204 146 239 24 98 115 98 129 89 79 88 89 86 77 72 72 57 46 35 39 51 41 26 56 47 36 38 6 25 39 43 46 74 85 87 56 74 76 81 95 80 70 74 86 85 86 78 68
265 130 186 215 131 86 83 66 24 88 106 99 95 89 87 90 71 49 30 35 34 51 40 35 50 67 51 63 47 35 63 48 35 55 62 67 69 56 68 75 76 74 79 71 78 94 85 96 69
338 3 9 119 15 121 122 74 340 64 119 124 119 121 112 81 92 82 47 34 31 42 56 39 52 47 55 32 48 44 54 68 56 42 30 58 67 51 64 63 58 68 80 76 74 67 95 91 85
332 320 259 71 83 40 68 71 8 51 81 111 120 110 109 108 99 84 57 48 39 32 46 54 56 57 50 47 40 46 31 59 60 53 22 30 50 75 77 73 70 64 68 74 86 77 73 81 76